TimeHST,TemperatureF,Dew PointF,Humidity,Sea Level PressureIn,VisibilityMPH,Wind Direction,Wind SpeedMPH,Gust SpeedMPH,PrecipitationIn,Events,Conditions,WindDirDegrees,DateUTC
12:54 AM,66.0,63.0,90,30.10,10.0,East,5.8,-,N/A,,Partly Cloudy,80,2013-03-13 10:54:00
1:54 AM,66.9,63.0,87,30.08,10.0,ENE,6.9,-,N/A,,Mostly Cloudy,70,2013-03-13 11:54:00
2:54 AM,66.0,62.1,87,30.05,10.0,ENE,4.6,-,N/A,,Scattered Clouds,60,2013-03-13 12:54:00
3:54 AM,64.9,62.1,90,30.04,10.0,East,6.9,-,N/A,,Partly Cloudy,90,2013-03-13 13:54:00
4:54 AM,63.0,61.0,93,30.05,10.0,ENE,4.6,-,N/A,,Clear,70,2013-03-13 14:54:00
5:54 AM,64.9,61.0,87,30.07,10.0,East,6.9,-,N/A,,Scattered Clouds,80,2013-03-13 15:54:00
6:54 AM,66.0,62.1,87,30.08,10.0,East,3.5,-,N/A,,Scattered Clouds,90,2013-03-13 16:54:00
7:54 AM,69.1,63.0,81,30.10,10.0,ENE,3.5,-,N/A,,Scattered Clouds,60,2013-03-13 17:54:00
8:54 AM,75.0,62.1,64,30.12,10.0,NE,10.4,-,N/A,,Scattered Clouds,40,2013-03-13 18:54:00
9:54 AM,75.9,62.1,62,30.12,10.0,NNE,10.4,-,N/A,,Scattered Clouds,30,2013-03-13 19:54:00
10:54 AM,77.0,63.0,62,30.11,10.0,NNE,13.8,-,N/A,,Partly Cloudy,30,2013-03-13 20:54:00
11:54 AM,78.1,62.1,58,30.09,10.0,NE,13.8,-,N/A,,Partly Cloudy,40,2013-03-13 21:54:00
12:54 PM,78.1,62.1,58,30.07,10.0,NNE,16.1,-,N/A,,Scattered Clouds,30,2013-03-13 22:54:00
1:54 PM,78.1,62.1,58,30.05,10.0,NNE,13.8,-,N/A,,Scattered Clouds,30,2013-03-13 23:54:00
2:54 PM,78.1,62.1,58,30.04,10.0,NNE,13.8,-,N/A,,Scattered Clouds,30,2013-03-14 00:54:00
3:54 PM,77.0,61.0,58,30.03,10.0,NNE,13.8,-,N/A,,Scattered Clouds,30,2013-03-14 01:54:00
4:54 PM,75.0,61.0,62,30.04,10.0,NNE,12.7,-,N/A,,Partly Cloudy,30,2013-03-14 02:54:00
5:54 PM,73.0,61.0,66,30.06,10.0,NE,9.2,-,N/A,,Partly Cloudy,40,2013-03-14 03:54:00
6:54 PM,72.0,61.0,68,30.07,10.0,NE,6.9,-,N/A,,Scattered Clouds,50,2013-03-14 04:54:00
7:54 PM,71.1,63.0,75,30.09,10.0,ENE,4.6,-,N/A,,Scattered Clouds,70,2013-03-14 05:54:00
8:54 PM,69.1,63.0,81,30.09,10.0,ENE,5.8,-,N/A,,Partly Cloudy,70,2013-03-14 06:54:00
9:54 PM,69.1,63.0,81,30.10,10.0,NNE,4.6,-,N/A,,Partly Cloudy,30,2013-03-14 07:54:00
10:54 PM,69.1,62.1,78,30.10,10.0,NE,6.9,-,N/A,,Scattered Clouds,50,2013-03-14 08:54:00
11:54 PM,64.0,62.1,93,30.10,10.0,SSE,3.5,-,N/A,,Clear,150,2013-03-14 09:54:00